STARLINK-36938, 68124

Orbit data source: Space-Track

STARLINK-36938, 68124 is a payload satellite owned by SpaceX/Seattle (US) in SSO that was launched on Sun, 08 Mar 2026 UTC via an FALCON 9 launch vehicle from the Air Force Western Test Range (AFWTR). Payload-class satellites include a variety of spacecraft equipped with specific instruments for various scientific and technological missions. These include communications satellites like Starlink; space stations such as the ISS; scientific satellites like the Hubble; Earth observation satellites from companies like Planet Labs, Umbra, and HawkEye 360; GPS; miniature CubeSats for education and research; and military/defense satellites.

Loading next visibility...
Identifier
68124, 2026-044Z
Orbit
SSO
Country
Flag of USUS
Related business
Manufacturer
SpaceX/Seattle
Mission
Operational spacecraft
Bus & Motor
STARLINK V2MO, Unknown motor
Mass
575 kg wet, ~530 kg dry
Launch date (UTC)
2026-03-08 (2 months ago)
Launch vehicle
FALCON 9
Launch site
Air Force Western Test Range (AFWTR)
Object type
Payload
Rocket body
Debris
Shape & HBR
Unknown shape, 17.7 m
Radar Cross Section
RCS unknown

Expand to show TLE details & history
Last TLE update: 11 hours ago

TLE from 11 hours ago
0 STARLINK-36938
1 68124U 26044Z   26119.43204883  .00305018  00000-0  19727-2 0  9993
2 68124  97.2847  82.1650 0002326 141.1182 219.0251 15.75201407  9475
Epoch: 2026-04-29T10:22Z
TLE epoch observation values (Epoch: 2026-04-29T10:22:09.018Z)
Latitude
-0.00004°
Longitude
69.23433°
Altitude
348.442 km
Speed
7.699 km/s
True Right ascension
05h 28m 39s
True Declination
0° 00' 00"
Sunlit
Object was in daylight at epoch
Visualization orbit readout
Latitude
Unknown
Longitude
Unknown
Altitude
Unknown
Speed
Unknown
Apparent Right ascension
Unknown
Apparent Declination
Unknown
Sunlit
N/A
Visualization observer readout
Local Sidereal Time
04:39:36
Azimuth
Unknown
Elevation
Unknown
Doppler factor
Unknown
Orbital elements
Apogee altitude
342.508 km
Perigee altitude
339.383 km
Semi-major axis
6,719.083 km
Eccentricity
0.00023
Inclination
97.2847°
RAAN
82.165°
Arg. of periapsis
141.1182°
True anomaly
219.00832°
Mean anomaly
219.0251°
Eccentric anomaly
219.01671°
Mean motion
3.94074 °/min
Orbital period
91.35 mins
BSTAR
0.0019727
Loading maneuver chart data...
Computing Atmospheric mass density...
Loading historical data...
Loading historical data...
Loading historical data...
Loading historical data...
Loading historical data...
Loading historical data...
Loading historical data...

Documentation

Showing up to 5 results
|